STARLINK-1642 (46154 NORAD) Tracking and Keplerian Element Data

This shows tracking and keplerian element data for the satellite.

Feedback or suggestion? Click here.




ElementValue
Catalog46154
NameSTARLINK-1642
Epoch Orbit177
Epoch Day338.66668981
Epoch Year2020
RAAN294.9066
Inclination53.001
Eccentricity0.0001585
Argument of Perigee69.4347
Mean Anonmoly57.8464
Mean Motion15.05574191
Decay Rate0.00011583
L11 46154U 20057AP 20338.66668981 .00011583 00000-0 81298-3 0 9999
L22 46154 53.0010 294.9066 0001585 69.4347 57.8464 15.05574191 1776

Live tracking and technical data element details for STARLINK-1642 (NORAD 46154). STARLINK-1642 can be tracked NOW for your location showing map with azimuth and elevation plus other details from your city location.

Track the satellite on the map from your city or location and see movement details for azimuth, elevation, latitude, longitude, range, height, and movement on the map or in text.







IsCatalogInMostPopularTable: catalog: 46154, numindb: 18
Update: records affected: 1



GetName: 46154 STARLINK-1642

Hit Count: updated at: Sun, 06 Dec 2020 00:59:38 GMT